KD9JB-1 Weather Reports


Display with metric or nautical units.
time (UTC)temp
F
wind
direction
speed
MPH
gust
MPH
rain 1hr
in
rain 24hr
in
rain mn
in
humidity
%
barometer
mb
20260504060139 54 63 1.0 3.0 0.00 0.04 0.00 76 1011.1
20260504050640 54 89 2.0 4.0 0.04 0.04 0.00 81 1011.8
20260504050139 54 178 2.0 3.0 0.04 0.04 0.00 80 1011.8
20260504045639 55 70 2.0 4.0 0.04 0.04 0.04 79 1011.8
20260504045139 56 81 2.0 4.0 0.04 0.04 0.04 76 1011.8
20260504044639 57 149 1.0 3.0 0.01 0.01 0.01 71 1012.2
20260504044139 58 81 1.0 5.0 0.00 0.00 0.00 64 1012.3
20260504043639 58 72 2.0 4.0 0.00 0.00 0.00 66 1011.9
20260504043139 57 135 2.0 4.0 0.00 0.00 0.00 67 1011.7
20260504042639 57 112 2.0 5.0 0.00 0.00 0.00 69 1011.9
20260504042139 56 142 2.0 3.0 0.00 0.00 0.00 71 1012.0
20260504041639 56 223 2.0 3.0 0.00 0.00 0.00 71 1012.1
20260504041139 56 148 2.0 5.0 0.00 0.00 0.00 69 1012.1
20260504040639 56 135 1.0 3.0 0.00 0.00 0.00 69 1012.1
20260504040139 56 129 1.0 3.0 0.00 0.00 0.00 69 1012.3
20260504035639 56 178 1.0 3.0 0.00 0.00 0.00 71 1012.4
20260504035139 56 142 2.0 3.0 0.00 0.00 0.00 68 1012.6
20260504034639 57 139 2.0 3.0 0.00 0.00 0.00 69 1012.7
20260504034139 57 112 2.0 2.0 0.00 0.00 0.00 68 1012.8
20260504033639 58 129 1.0 3.0 0.00 0.00 0.00 65 1012.9
20260504033139 59 82 1.0 3.0 0.00 0.00 0.00 59 1012.9
20260504032639 60 46 2.0 3.0 0.00 0.00 0.00 55 1013.1
20260504032139 59 60 2.0 7.0 0.00 0.00 0.00 56 1013.0
20260504031639 59 117 2.0 4.0 0.00 0.00 0.00 56 1012.1
20260504031139 59 203 2.0 5.0 0.00 0.00 0.00 56 1012.0
20260504030639 59 218 2.0 4.0 0.00 0.00 0.00 57 1012.0
20260504030139 59 140 2.0 5.0 0.00 0.00 0.00 57 1011.9
20260504025639 58 142 2.0 5.0 0.00 0.00 0.00 57 1012.0
20260504025139 58 141 2.0 5.0 0.00 0.00 0.00 58 1012.3
20260504024639 58 140 2.0 4.0 0.00 0.00 0.00 58 1012.4
20260504024139 58 139 2.0 4.0 0.00 0.00 0.00 59 1012.4
20260504023639 58 145 2.0 5.0 0.00 0.00 0.00 58 1012.5
20260504023139 58 135 2.0 4.0 0.00 0.00 0.00 58 1012.5
20260504022639 58 135 2.0 5.0 0.00 0.00 0.00 58 1012.6
20260504022139 58 161 2.0 4.0 0.00 0.00 0.00 58 1012.6
20260504021639 58 193 1.0 3.0 0.00 0.00 0.00 58 1012.7
20260504021139 58 129 1.0 3.0 0.00 0.00 0.00 58 1012.7
20260504020639 58 135 1.0 3.0 0.00 0.00 0.00 57 1012.7
20260504020139 58 140 1.0 3.0 0.00 0.00 0.00 56 1012.8
20260504015639 58 152 1.0 2.0 0.00 0.00 0.00 56 1012.7
20260504015139 58 169 1.0 3.0 0.00 0.00 0.00 56 1012.7
20260504014639 59 161 1.0 2.0 0.00 0.00 0.00 55 1012.7
20260504014139 59 164 1.0 3.0 0.00 0.00 0.00 54 1012.7
20260504013639 59 135 1.0 4.0 0.00 0.00 0.00 54 1012.7
20260504013139 60 117 1.0 2.0 0.00 0.00 0.00 54 1012.7
20260504012639 60 72 1.0 3.0 0.00 0.00 0.00 54 1012.7
20260504012139 60 72 1.0 3.0 0.00 0.00 0.00 53 1012.7
20260504011639 60 152 1.0 3.0 0.00 0.00 0.00 53 1012.7
20260504011139 60 135 1.0 3.0 0.00 0.00 0.00 53 1012.8
20260504010639 61 148 2.0 3.0 0.00 0.00 0.00 52 1012.8
20260504010139 61 121 1.0 3.0 0.00 0.00 0.00 51 1013.0
20260504005639 61 140 1.0 2.0 0.00 0.00 0.00 51 1013.0
20260504005139 61 135 1.0 1.0 0.00 0.00 0.00 51 1013.0
20260504004639 61 63 1.0 2.0 0.00 0.00 0.00 51 1013.1
20260504004139 61 89 1.0 2.0 0.00 0.00 0.00 50 1013.1
20260504003639 62 89 1.0 2.0 0.00 0.00 0.00 49 1013.2
20260504003139 62 121 1.0 2.0 0.00 0.00 0.00 49 1013.1
20260504002639 63 117 1.0 3.0 0.00 0.00 0.00 48 1013.0
20260504002139 63 89 1.0 2.0 0.00 0.00 0.00 48 1013.1
20260504001639 64 135 2.0 5.0 0.00 0.00 0.00 45 1013.1
20260504001139 64 223 1.0 4.0 0.00 0.00 0.00 45 1013.1
20260504000640 64 331 2.0 4.0 0.00 0.00 0.00 46 1013.1
20260504000139 64 248 2.0 9.0 0.00 0.00 0.00 45 1013.1
20260503235639 64 178 2.0 3.0 0.00 0.00 0.00 46 1013.0
20260503235139 65 283 2.0 8.0 0.00 0.00 0.00 44 1012.9
20260503234639 65 257 3.0 6.0 0.00 0.00 0.00 43 1012.7
20260503234139 65 129 4.0 9.0 0.00 0.00 0.00 43 1012.5
20260503233639 65 13 3.0 13.0 0.00 0.00 0.00 44 1012.3
20260503233139 66 51 3.0 7.0 0.00 0.00 0.00 44 1012.3
20260503232639 66 127 2.0 10.0 0.00 0.00 0.00 43 1012.3
20260503232139 66 324 3.0 6.0 0.00 0.00 0.00 43 1012.4
20260503231639 66 340 4.0 12.0 0.00 0.00 0.00 42 1012.4
20260503231139 66 241 4.0 10.0 0.00 0.00 0.00 41 1012.5
20260503230639 66 187 4.0 12.0 0.00 0.00 0.00 41 1012.5
20260503230139 67 138 4.0 10.0 0.00 0.00 0.00 41 1012.5
20260503225639 67 136 4.0 8.0 0.00 0.00 0.00 40 1012.6
20260503225139 67 246 4.0 12.0 0.00 0.00 0.00 40 1012.7
20260503224639 67 130 4.0 13.0 0.00 0.00 0.00 40 1012.7
20260503224139 68 197 4.0 9.0 0.00 0.00 0.00 40 1012.6
20260503223639 67 223 4.0 8.0 0.00 0.00 0.00 41 1012.7
20260503223139 67 126 4.0 10.0 0.00 0.00 0.00 41 1012.8
20260503222639 68 246 4.0 11.0 0.00 0.00 0.00 40 1013.0
20260503222140 68 248 4.0 9.0 0.00 0.00 0.00 40 1013.1
20260503221640 68 186 4.0 13.0 0.00 0.00 0.00 41 1013.1
20260503221140 68 283 4.0 9.0 0.00 0.00 0.00 42 1013.5
20260503220640 68 218 5.0 9.0 0.00 0.00 0.00 41 1013.4
20260503220140 67 290 6.0 17.0 0.00 0.00 0.00 40 1013.5
20260503215640 67 295 5.0 12.0 0.00 0.00 0.00 42 1013.7
20260503215140 68 203 4.0 11.0 0.00 0.00 0.00 40 1013.7
20260503214640 68 81 4.0 12.0 0.00 0.00 0.00 41 1013.7
20260503214140 68 196 4.0 12.0 0.00 0.00 0.00 40 1013.8
20260503213640 68 142 4.0 9.0 0.00 0.00 0.00 42 1013.9
20260503213140 68 327 4.0 9.0 0.00 0.00 0.00 44 1014.0
20260503212640 68 202 4.0 12.0 0.00 0.00 0.00 42 1014.2
20260503212140 68 269 4.0 10.0 0.00 0.00 0.00 43 1014.5
20260503211640 68 193 5.0 11.0 0.00 0.00 0.00 40 1014.7
20260503211140 68 207 4.0 12.0 0.00 0.00 0.00 40 1014.6
20260503210640 68 276 4.0 9.0 0.00 0.00 0.00 41 1014.7
20260503210140 68 227 4.0 12.0 0.00 0.00 0.00 41 1014.7
20260503205640 67 223 4.0 8.0 0.00 0.00 0.00 41 1014.9
20260503205140 67 238 5.0 10.0 0.00 0.00 0.00 41 1015.1
20260503204640 67 201 5.0 12.0 0.00 0.00 0.00 43 1015.2
20260503204140 68 229 5.0 17.0 0.00 0.00 0.00 40 1015.4
20260503203640 68 156 4.0 12.0 0.00 0.00 0.00 42 1015.4
20260503203140 68 162 4.0 9.0 0.00 0.00 0.00 42 1015.6
20260503202640 67 252 4.0 12.0 0.00 0.00 0.00 44 1015.6
20260503202140 67 165 4.0 11.0 0.00 0.00 0.00 43 1015.6
20260503201640 66 269 5.0 13.0 0.00 0.00 0.00 42 1015.6
20260503201140 67 204 5.0 14.0 0.00 0.00 0.00 41 1015.7
20260503200640 67 235 4.0 14.0 0.00 0.00 0.00 43 1015.8
20260503200140 67 215 4.0 16.0 0.00 0.00 0.00 46 1016.0
20260503195640 67 240 5.0 10.0 0.00 0.00 0.00 42 1016.2
20260503195140 66 186 5.0 13.0 0.00 0.00 0.00 42 1016.3
20260503194640 67 228 4.0 14.0 0.00 0.00 0.00 44 1016.5
20260503194140 66 264 4.0 11.0 0.00 0.00 0.00 43 1016.6
20260503193640 66 162 4.0 14.0 0.00 0.00 0.00 44 1016.7
20260503193140 67 262 4.0 12.0 0.00 0.00 0.00 41 1016.7
20260503192640 66 235 3.0 9.0 0.00 0.00 0.00 43 1016.8
20260503192140 66 301 4.0 8.0 0.00 0.00 0.00 45 1017.0
20260503191640 66 219 5.0 11.0 0.00 0.00 0.00 39 1017.2
20260503191140 66 220 5.0 13.0 0.00 0.00 0.00 42 1017.2
20260503190640 66 213 5.0 12.0 0.00 0.00 0.00 42 1017.2
20260503190140 66 307 4.0 10.0 0.00 0.00 0.00 43 1017.4
20260503185640 66 252 4.0 14.0 0.00 0.00 0.00 44 1017.6
20260503185140 66 303 5.0 9.0 0.00 0.00 0.00 44 1017.5
20260503184640 65 278 5.0 15.0 0.00 0.00 0.00 43 1017.7
20260503184140 65 167 5.0 11.0 0.00 0.00 0.00 45 1017.9
20260503183640 65 283 5.0 16.0 0.00 0.00 0.00 44 1018.0
20260503183140 64 147 4.0 12.0 0.00 0.00 0.00 46 1018.1
20260503182640 64 253 4.0 12.0 0.00 0.00 0.00 47 1018.3
20260503182140 64 6 4.0 12.0 0.00 0.00 0.00 46 1018.4
20260503181640 64 207 5.0 11.0 0.00 0.00 0.00 46 1018.5
20260503181140 65 279 4.0 11.0 0.00 0.00 0.00 42 1018.6
20260503180640 65 262 4.0 10.0 0.00 0.00 0.00 43 1018.6
20260503180140 64 159 4.0 12.0 0.00 0.00 0.00 45 1018.6
20260503175640 65 207 3.0 10.0 0.00 0.00 0.00 45 1018.8
20260503175140 64 216 4.0 14.0 0.00 0.00 0.00 46 1019.0
20260503174640 64 169 4.0 8.0 0.00 0.00 0.00 46 1019.1
20260503174140 63 269 4.0 11.0 0.00 0.00 0.00 44 1019.1
20260503173640 64 187 4.0 11.0 0.00 0.00 0.00 44 1019.2
20260503173140 63 228 4.0 10.0 0.00 0.00 0.00 45 1019.3
20260503172640 63 159 4.0 9.0 0.00 0.00 0.00 48 1019.4
20260503172140 62 152 5.0 11.0 0.00 0.00 0.00 45 1019.5
20260503171640 63 258 4.0 14.0 0.00 0.00 0.00 46 1019.7
20260503171140 63 193 4.0 7.0 0.00 0.00 0.00 46 1019.8
20260503170640 62 108 3.0 11.0 0.00 0.00 0.00 47 1019.8
20260503170140 63 119 3.0 11.0 0.00 0.00 0.00 47 1019.8
20260503160140 61 157 3.0 8.0 0.00 0.00 0.00 47 1020.4
20260503150640 58 166 4.0 10.0 0.00 0.00 0.00 54 1020.8
20260503150140 58 230 3.0 8.0 0.00 0.00 0.00 53 1020.9
20260503140140 53 295 3.0 6.0 0.00 0.01 0.00 62 1020.9
20260503131140 49 135 2.0 9.0 0.00 0.02 0.00 74 1020.9
20260503130640 49 161 2.0 5.0 0.00 0.02 0.00 76 1021.0
20260503130140 48 107 2.0 5.0 0.00 0.02 0.00 77 1021.0
20260503120141 42 193 1.0 2.0 0.00 0.03 0.00 87 1020.9
20260503110641 37 135 1.0 2.0 0.00 0.03 0.00 91 1020.4
20260503110141 37 46 1.0 2.0 0.00 0.03 0.00 91 1020.4
20260503100141 37 46 0.0 1.0 0.00 0.03 0.00 92 1020.3
20260503090141 37 135 0.0 1.0 0.00 0.03 0.00 92 1020.4
20260503081141 38 178 1.0 2.0 0.00 0.03 0.00 92 1020.3
20260503080641 38 206 1.0 2.0 0.00 0.03 0.00 92 1020.3
20260503080141 37 197 1.0 2.0 0.00 0.03 0.00 91 1020.2
20260503072641 38 127 0.0 2.0 0.00 0.03 0.00 91 1020.0
20260503072142 37 135 0.0 1.0 0.00 0.03 0.00 91 1020.1
20260503071641 37 46 0.0 2.0 0.00 0.03 0.00 90 1020.2
20260503071141 38 1 0.0 2.0 0.00 0.03 0.00 90 1020.2
20260503070641 38 46 0.0 1.0 0.00 0.03 0.00 91 1020.2
20260503070141 38 135 0.0 1.0 0.00 0.03 0.00 90 1020.2